Regional Weather Roundup
Issued by NWS Glasgow, MT

Home | Current Version | Previous Version | Text Only | Print | Product List | Glossary On
Versions: 1 2 3 4 5 6 7 8 9 10 11 12 13 14 15 16 17 18 19 20 21 22 23 24 25 26 27
000
ASUS45 KGGW 270615
RWRGGW
HOURLY REGIONAL WEATHER ROUNDUP FOR NORTHEAST MONTANA
NATIONAL WEATHER SERVICE GLASGOW MONTANA
1200 AM MDT SAT AUG 27 2016

NOTE: "FAIR" INDICATES FEW OR NO CLOUDS BELOW 12,000 FEET WITH NO
SIGNIFICANT WEATHER AND/OR OBSTRUCTIONS TO VISISBILITY.

NORTHEAST MONTANA


CITY           SKY/WX    TMP DP  RH WIND       PRES   REMARKS
GLASGOW        CLEAR     52  43  71 VRB7      29.93F
6HR MIN TEMP:  49; 6HR MAX TEMP:  69;

PLENTYWOOD       N/A     51  46  83 N3          N/A
WOLF POINT     CLEAR     48  43  82 CALM      29.95S
JORDAN           N/A     47  43  86 CALM      29.96F
WINNETT          N/A     50  42  74 W1          N/A
SIDNEY         PTCLDY    54  46  74 W9        29.95S
GLENDIVE       CLEAR     50  41  71 SW6       29.98R
MALTA            N/A     53  48  83 E1          N/A
SCOBEY           N/A     43  35  73 CALM      29.94S

FORT PECK REPORTS


CITY           SKY/WX    TMP DP  RH WIND       PRES   REMARKS
FORT PECK        N/A     58  44  60 NE2         N/A
THE PINES        N/A     59  50  72 CALM        N/A

SOUTHEAST MONTANA


CITY           SKY/WX    TMP DP  RH WIND       PRES   REMARKS
BILLINGS       PTCLDY    57  40  52 CALM      29.98F
MILES CITY     PTCLDY    60  43  53 SE5       29.97F
BAKER          NOT AVBL
LIVINGSTON     CLEAR     50  37  61 SE5       30.01S

CENTRAL MONTANA


CITY           SKY/WX    TMP DP  RH WIND       PRES   REMARKS
HAVRE          CLEAR     54  44  69 NE3       29.88F
LEWISTOWN      MOCLDY    52  45  77 SE7       29.98F
GREAT FALLS    PTCLDY    54  38  54 S7        29.92F
CUT BANK       MOCLDY    54  40  59 SE7       29.88F
HELENA         PTCLDY    58  36  43 CALM      29.95S
BUTTE          PTCLDY    48  30  49 CALM      30.06S
BOZEMAN        CLEAR     46  37  71 SE7       30.00F

WESTERN MONTANA


CITY           SKY/WX    TMP DP  RH WIND       PRES   REMARKS
MISSOULA       CLOUDY    61  40  45 CALM      29.94S
KALISPELL      NOT AVBL

NORTH DAKOTA


CITY           SKY/WX    TMP DP  RH WIND       PRES   REMARKS
WILLISTON      PTCLDY    54  45  71 CALM      29.94F
DICKINSON      CLOUDY    52  46  80 W9        29.98R
MINOT          FAIR      59  53  80 S8        29.92S
BISMARCK       PTCLDY    54  51  90 S5        30.00S

SOUTHERN SASKATCHEWAN


CITY           SKY/WX    TMP DP  RH WIND       PRES   REMARKS
REGINA         CLEAR     48  46  93 W8        29.89F
ESTEVAN        CLEAR     48  46  93 SW7       29.92S
SWIFT CURRENT  CLEAR     48  45  87 S7        29.89F





USA.gov is the U.S. government's official web portal to all federal, state and local government web resources and services.